EZY94JP LSZH-EGCC

Flight info

Callsign EZY94JP
Flight time 1h 34m
Altitude 38000
Route VEBIT T10 TORPA DCT REKLA DCT RLP DCT ROTSI DCT KOTUN DCT AMAXA DCT VESAN DCT RATUK DCT SOVAT L613 SANDY UN57 WELIN T420 ELVOS
Aircraft A320/M-SDE2E3FGHIJ1RWXYZ/LB1

Departure

Time 2026-05-05 19:09
Airport Zürich Airport (LSZH)

Arrival

Time 2026-05-05 20:43
Airport Manchester Airport (EGCC)
Time Latitude Longitude Altitude Speed Heading
2026-05-05 18:25 47.46037 8.55832 1401 ft 0 kts
2026-05-05 18:27 47.46177 8.55551 1405 ft 0 kts 186°
2026-05-05 18:54 47.46183 8.55552 1405 ft 2 kts 185°
2026-05-05 18:55 47.46203 8.55553 1406 ft 3 kts 178°
2026-05-05 18:55 47.46223 8.55551 1403 ft 3 kts 167°
2026-05-05 18:55 47.46242 8.55542 1402 ft 3 kts 144°
2026-05-05 18:55 47.46253 8.55525 1404 ft 2 kts 101°
2026-05-05 18:56 47.46254 8.55513 1402 ft 1 kts 96°
2026-05-05 18:58 47.46252 8.55541 1404 ft 3 kts 96°
2026-05-05 18:59 47.46250 8.55564 1405 ft 3 kts 97°
2026-05-05 18:59 47.46246 8.55616 1399 ft 5 kts 96°
2026-05-05 18:59 47.46243 8.55661 1397 ft 9 kts 96°
2026-05-05 18:59 47.46235 8.55769 1401 ft 5 kts 96°
2026-05-05 19:00 47.46233 8.55801 1398 ft 5 kts 95°
2026-05-05 19:00 47.46230 8.55848 1398 ft 2 kts 96°
2026-05-05 19:00 47.46229 8.55868 1398 ft 3 kts 97°
2026-05-05 19:00 47.46228 8.55874 1398 ft 0 kts 97°
2026-05-05 19:01 47.46226 8.55893 1398 ft 0 kts 97°
2026-05-05 19:01 47.46223 8.55935 1403 ft 12 kts 95°
2026-05-05 19:01 47.46194 8.56006 1404 ft 1 kts 131°
2026-05-05 19:01 47.46184 8.56025 1407 ft 4 kts 129°
2026-05-05 19:02 47.46170 8.56047 1405 ft 6 kts 134°
2026-05-05 19:02 47.46135 8.56097 1403 ft 7 kts 137°
2026-05-05 19:02 47.46101 8.56142 1402 ft 7 kts 138°
2026-05-05 19:02 47.46063 8.56192 1408 ft 8 kts 137°
2026-05-05 19:03 47.46051 8.56208 1404 ft 0 kts 137°
2026-05-05 19:04 47.46045 8.56217 1403 ft 6 kts 137°
2026-05-05 19:04 47.46015 8.56267 1407 ft 5 kts 121°
2026-05-05 19:04 47.46013 8.56297 1404 ft 2 kts 75°
2026-05-05 19:04 47.46020 8.56311 1403 ft 0 kts 51°
2026-05-05 19:07 47.46027 8.56318 1412 ft 4 kts 34°
2026-05-05 19:07 47.46082 8.56346 1407 ft 12 kts 12°
2026-05-05 19:07 47.46174 8.56354 1407 ft 11 kts 352°
2026-05-05 19:08 47.46247 8.56285 1403 ft 20 kts 315°
2026-05-05 19:08 47.46487 8.55958 1400 ft 83 kts 317°
2026-05-05 19:08 47.47069 8.55164 1395 ft 143 kts 317°
2026-05-05 19:08 47.47920 8.54013 1535 ft 177 kts 318°
2026-05-05 19:09 47.48827 8.52829 2346 ft 173 kts 317°
2026-05-05 19:09 47.49767 8.51683 2964 ft 183 kts 325°
2026-05-05 19:09 47.50944 8.50734 3333 ft 201 kts 329°
2026-05-05 19:09 47.52229 8.49661 3690 ft 219 kts 319°
2026-05-05 19:10 47.53157 8.47953 4484 ft 213 kts 291°
2026-05-05 19:10 47.53544 8.45844 4979 ft 213 kts 273°
2026-05-05 19:10 47.53382 8.43704 5114 ft 211 kts 249°
2026-05-05 19:10 47.52745 8.41752 5933 ft 210 kts 243°
2026-05-05 19:11 47.51996 8.39922 6781 ft 209 kts 229°
2026-05-05 19:11 47.50825 8.38583 7390 ft 225 kts 208°
2026-05-05 19:11 47.49232 8.37903 7745 ft 252 kts 196°
2026-05-05 19:11 47.47471 8.37334 8343 ft 264 kts 195°
2026-05-05 19:12 47.45645 8.36752 8790 ft 270 kts 195°
2026-05-05 19:12 47.43808 8.36166 8888 ft 270 kts 195°
2026-05-05 19:12 47.41999 8.35588 8906 ft 269 kts 195°
2026-05-05 19:12 47.40232 8.34647 8918 ft 266 kts 211°
2026-05-05 19:13 47.38774 8.33057 8920 ft 264 kts 226°
2026-05-05 19:13 47.37666 8.30929 8912 ft 260 kts 240°
2026-05-05 19:13 47.36830 8.28585 8910 ft 257 kts 241°
2026-05-05 19:13 47.35999 8.26249 9068 ft 260 kts 241°
2026-05-05 19:14 47.35156 8.23889 9958 ft 260 kts 241°
2026-05-05 19:14 47.34299 8.21486 10476 ft 274 kts 241°
2026-05-05 19:14 47.33376 8.18898 10768 ft 295 kts 241°
2026-05-05 19:14 47.32403 8.16172 11386 ft 304 kts 241°
2026-05-05 19:15 47.31406 8.13380 12108 ft 308 kts 241°
2026-05-05 19:15 47.30410 8.10581 12844 ft 313 kts 242°
2026-05-05 19:15 47.29389 8.07712 13539 ft 318 kts 242°
2026-05-05 19:15 47.28357 8.04808 14202 ft 322 kts 242°
2026-05-05 19:16 47.27614 8.01685 14797 ft 329 kts 259°
2026-05-05 19:16 47.27676 7.98289 15377 ft 338 kts 279°
2026-05-05 19:16 47.28239 7.94900 16011 ft 343 kts 281°
2026-05-05 19:16 47.28828 7.91477 16647 ft 346 kts 281°
2026-05-05 19:17 47.29426 7.88023 17268 ft 350 kts 281°
2026-05-05 19:17 47.30026 7.84535 17873 ft 354 kts 281°
2026-05-05 19:17 47.30629 7.81002 18431 ft 357 kts 281°
2026-05-05 19:17 47.31237 7.77427 18947 ft 361 kts 281°
2026-05-05 19:18 47.31849 7.73829 19472 ft 364 kts 281°
2026-05-05 19:18 47.32465 7.70191 19994 ft 368 kts 281°
2026-05-05 19:18 47.33083 7.66516 20522 ft 371 kts 281°
2026-05-05 19:18 47.33702 7.62807 21029 ft 374 kts 280°
2026-05-05 19:19 47.34296 7.59060 21536 ft 377 kts 279°
2026-05-05 19:19 47.34868 7.55278 22040 ft 379 kts 279°
2026-05-05 19:19 47.35432 7.51467 22504 ft 382 kts 278°
2026-05-05 19:19 47.35999 7.47623 23002 ft 385 kts 278°
2026-05-05 19:20 47.36572 7.43747 23472 ft 389 kts 278°
2026-05-05 19:20 47.37153 7.39834 23809 ft 392 kts 278°
2026-05-05 19:20 47.37737 7.35917 23873 ft 391 kts 279°
2026-05-05 19:20 47.38324 7.31998 23895 ft 391 kts 279°
2026-05-05 19:21 47.38913 7.28059 24208 ft 394 kts 278°
2026-05-05 19:21 47.39502 7.24097 24627 ft 396 kts 278°
2026-05-05 19:21 47.40088 7.20118 25057 ft 398 kts 278°
2026-05-05 19:21 47.40675 7.16118 25438 ft 400 kts 278°
2026-05-05 19:22 47.41257 7.12148 25834 ft 402 kts 278°
2026-05-05 19:22 47.41856 7.08057 26231 ft 404 kts 278°
2026-05-05 19:22 47.42587 7.04034 26565 ft 411 kts 288°
2026-05-05 19:22 47.43684 7.00115 26914 ft 414 kts 289°
2026-05-05 19:23 47.44800 6.96173 27268 ft 417 kts 289°
2026-05-05 19:23 47.45923 6.92221 27634 ft 419 kts 289°
2026-05-05 19:23 47.47050 6.88242 27997 ft 421 kts 288°
2026-05-05 19:23 47.48165 6.84290 28353 ft 423 kts 288°
2026-05-05 19:24 47.49349 6.80294 28717 ft 428 kts 294°
2026-05-05 19:24 47.51116 6.76703 29049 ft 439 kts 311°
2026-05-05 19:24 47.53420 6.73690 29376 ft 444 kts 315°
2026-05-05 19:24 47.55704 6.70624 29702 ft 443 kts 310°
2026-05-05 19:25 47.57879 6.67358 29998 ft 447 kts 310°
2026-05-05 19:25 47.60063 6.64063 30243 ft 449 kts 310°
2026-05-05 19:25 47.62251 6.60747 30497 ft 451 kts 311°
2026-05-05 19:25 47.64442 6.57409 30758 ft 453 kts 311°
2026-05-05 19:26 47.66639 6.54050 31020 ft 454 kts 311°
2026-05-05 19:26 47.68843 6.50674 31297 ft 455 kts 311°
2026-05-05 19:26 47.71041 6.47305 31676 ft 454 kts 311°
2026-05-05 19:26 47.73237 6.43943 32057 ft 452 kts 311°
2026-05-05 19:27 47.75423 6.40594 32426 ft 451 kts 311°
2026-05-05 19:27 47.77604 6.37249 32794 ft 450 kts 311°
2026-05-05 19:27 47.79782 6.33902 33175 ft 449 kts 311°
2026-05-05 19:27 47.81950 6.30559 33541 ft 449 kts 311°
2026-05-05 19:28 47.84115 6.27214 33876 ft 449 kts 311°
2026-05-05 19:28 47.86279 6.23866 34144 ft 449 kts 311°
2026-05-05 19:28 47.88443 6.20512 34405 ft 449 kts 311°
2026-05-05 19:28 47.90606 6.17158 34673 ft 449 kts 311°
2026-05-05 19:29 47.92768 6.13805 34934 ft 449 kts 311°
2026-05-05 19:29 47.94933 6.10449 35163 ft 449 kts 311°
2026-05-05 19:29 47.97096 6.07094 35395 ft 449 kts 311°
2026-05-05 19:29 47.99259 6.03735 35631 ft 449 kts 311°
2026-05-05 19:30 48.01419 6.00375 35860 ft 449 kts 311°
2026-05-05 19:30 48.03579 5.97010 36088 ft 449 kts 310°
2026-05-05 19:30 48.05737 5.93639 36311 ft 449 kts 311°
2026-05-05 19:30 48.07891 5.90262 36502 ft 449 kts 311°
2026-05-05 19:31 48.10049 5.86881 36704 ft 450 kts 311°
2026-05-05 19:31 48.12180 5.83540 36903 ft 450 kts 311°
2026-05-05 19:31 48.14337 5.80155 37109 ft 450 kts 311°
2026-05-05 19:31 48.16495 5.76766 37316 ft 449 kts 311°
2026-05-05 19:32 48.18652 5.73377 37521 ft 449 kts 311°
2026-05-05 19:32 48.20802 5.69988 37732 ft 449 kts 310°
2026-05-05 19:32 48.22954 5.66590 37836 ft 449 kts 310°
2026-05-05 19:32 48.25103 5.63192 37843 ft 449 kts 310°
2026-05-05 19:33 48.29391 5.56395 37856 ft 448 kts 310°
2026-05-05 19:33 48.33677 5.49602 37844 ft 448 kts 311°
2026-05-05 19:34 48.37963 5.42788 37841 ft 448 kts 310°
2026-05-05 19:35 48.44370 5.32537 37831 ft 448 kts 310°
2026-05-05 19:35 48.48643 5.25703 37830 ft 448 kts 310°
2026-05-05 19:36 48.52911 5.18854 37848 ft 448 kts 311°
2026-05-05 19:36 48.57165 5.11985 37846 ft 448 kts 311°
2026-05-05 19:37 48.61420 5.05108 37844 ft 448 kts 311°
2026-05-05 19:37 48.65676 4.98235 37841 ft 448 kts 311°
2026-05-05 19:38 48.69925 4.91350 37837 ft 448 kts 311°
2026-05-05 19:38 48.74169 4.84447 37840 ft 448 kts 311°
2026-05-05 19:39 48.78403 4.77526 37843 ft 448 kts 311°
2026-05-05 19:39 48.82629 4.70592 37823 ft 448 kts 311°
2026-05-05 19:40 48.86859 4.63642 37805 ft 448 kts 311°
2026-05-05 19:40 48.91091 4.56691 37805 ft 448 kts 311°
2026-05-05 19:41 48.95320 4.49719 37806 ft 448 kts 311°
2026-05-05 19:41 48.99542 4.42735 37811 ft 448 kts 311°
2026-05-05 19:42 49.03760 4.35733 37816 ft 449 kts 311°
2026-05-05 19:42 49.07981 4.28722 37810 ft 449 kts 311°
2026-05-05 19:43 49.12204 4.21692 37809 ft 449 kts 311°
2026-05-05 19:43 49.16419 4.14644 37809 ft 449 kts 311°
2026-05-05 19:44 49.20630 4.07587 37810 ft 449 kts 310°
2026-05-05 19:44 49.24129 4.01703 37805 ft 450 kts 310°
2026-05-05 19:45 49.28332 3.94613 37803 ft 450 kts 310°
2026-05-05 19:45 49.32538 3.87505 37806 ft 450 kts 310°
2026-05-05 19:46 49.36748 3.80374 37809 ft 451 kts 310°
2026-05-05 19:46 49.40946 3.73234 37814 ft 451 kts 310°
2026-05-05 19:47 49.45150 3.66080 37817 ft 451 kts 310°
2026-05-05 19:47 49.49349 3.58915 37826 ft 451 kts 310°
2026-05-05 19:48 49.53543 3.51732 37837 ft 451 kts 310°
2026-05-05 19:48 49.57734 3.44534 37839 ft 451 kts 310°
2026-05-05 19:49 49.61915 3.37328 37843 ft 451 kts 310°
2026-05-05 19:49 49.66091 3.30102 37845 ft 451 kts 310°
2026-05-05 19:50 49.70267 3.22878 37848 ft 451 kts 310°
2026-05-05 19:50 49.74443 3.15633 37859 ft 451 kts 310°
2026-05-05 19:51 49.78605 3.08371 37858 ft 451 kts 310°
2026-05-05 19:51 49.82767 3.01102 37861 ft 451 kts 310°
2026-05-05 19:52 49.86921 2.93820 37865 ft 451 kts 310°
2026-05-05 19:52 49.91069 2.86519 37871 ft 451 kts 309°
2026-05-05 19:53 49.95186 2.79173 37880 ft 451 kts 309°
2026-05-05 19:53 49.99247 2.71838 37886 ft 451 kts 309°
2026-05-05 19:54 50.03331 2.64448 37885 ft 451 kts 309°
2026-05-05 19:54 50.07425 2.57069 37882 ft 450 kts 309°
2026-05-05 19:55 50.11508 2.49680 37883 ft 450 kts 309°
2026-05-05 19:55 50.15588 2.42265 37886 ft 450 kts 309°
2026-05-05 19:56 50.19660 2.34836 37904 ft 451 kts 309°
2026-05-05 19:56 50.23734 2.27397 37920 ft 451 kts 308°
2026-05-05 19:57 50.27804 2.19948 37928 ft 451 kts 308°
2026-05-05 19:57 50.31862 2.12486 37928 ft 450 kts 308°
2026-05-05 19:58 50.35914 2.05023 37926 ft 449 kts 309°
2026-05-05 19:58 50.40428 1.98250 37934 ft 451 kts 317°
2026-05-05 19:59 50.45163 1.91813 37935 ft 450 kts 317°
2026-05-05 19:59 50.49893 1.85360 37941 ft 450 kts 317°
2026-05-05 20:00 50.54604 1.78904 37942 ft 449 kts 316°
2026-05-05 20:00 50.59305 1.72445 37944 ft 448 kts 316°
2026-05-05 20:01 50.63995 1.65988 37950 ft 447 kts 317°
2026-05-05 20:01 50.68677 1.59535 37950 ft 447 kts 316°
2026-05-05 20:02 50.73340 1.53074 37946 ft 446 kts 316°
2026-05-05 20:02 50.77990 1.46605 37949 ft 445 kts 316°
2026-05-05 20:03 50.82641 1.40132 37954 ft 445 kts 316°
2026-05-05 20:03 50.87292 1.33630 37953 ft 446 kts 317°
2026-05-05 20:04 50.91916 1.27168 37953 ft 447 kts 317°
2026-05-05 20:04 50.96571 1.20644 37955 ft 447 kts 316°
2026-05-05 20:05 51.01225 1.14093 37955 ft 447 kts 316°
2026-05-05 20:05 51.05867 1.07519 37958 ft 447 kts 316°
2026-05-05 20:06 51.10419 1.00776 37960 ft 446 kts 314°
2026-05-05 20:06 51.14835 0.93832 37965 ft 446 kts 314°
2026-05-05 20:07 51.19234 0.86878 38036 ft 445 kts 314°
2026-05-05 20:07 51.23656 0.79976 38062 ft 444 kts 314°
2026-05-05 20:08 51.28071 0.73095 38066 ft 443 kts 314°
2026-05-05 20:08 51.32442 0.66238 38071 ft 443 kts 314°
2026-05-05 20:09 51.36832 0.59325 37978 ft 442 kts 314°
2026-05-05 20:09 51.41215 0.52412 37980 ft 442 kts 314°
2026-05-05 20:10 51.45590 0.45486 37981 ft 442 kts 314°
2026-05-05 20:10 51.49969 0.38554 37982 ft 442 kts 313°
2026-05-05 20:11 51.54337 0.31604 37984 ft 442 kts 313°
2026-05-05 20:11 51.58698 0.24641 37990 ft 442 kts 313°
2026-05-05 20:12 51.63051 0.17665 37988 ft 442 kts 313°
2026-05-05 20:12 51.67386 0.10666 37986 ft 441 kts 313°
2026-05-05 20:13 51.71686 0.03601 37996 ft 441 kts 312°
2026-05-05 20:13 51.75970 -0.03484 38050 ft 441 kts 312°
2026-05-05 20:14 51.80256 -0.10571 38061 ft 441 kts 312°
2026-05-05 20:14 51.84539 -0.17655 37995 ft 440 kts 312°
2026-05-05 20:15 51.88807 -0.24731 37997 ft 439 kts 312°
2026-05-05 20:15 51.93065 -0.31826 37318 ft 441 kts 312°
2026-05-05 20:15 51.95201 -0.35396 36723 ft 439 kts 312°
2026-05-05 20:16 51.97318 -0.38934 36205 ft 436 kts 312°
2026-05-05 20:16 51.99425 -0.42458 35678 ft 433 kts 312°
2026-05-05 20:16 52.01516 -0.45959 35175 ft 431 kts 311°
2026-05-05 20:16 52.03590 -0.49439 34662 ft 428 kts 311°
2026-05-05 20:17 52.05656 -0.52913 34146 ft 427 kts 311°
2026-05-05 20:17 52.07712 -0.56375 33575 ft 425 kts 311°
2026-05-05 20:17 52.09754 -0.59818 33078 ft 420 kts 311°
2026-05-05 20:17 52.11772 -0.63225 32575 ft 417 kts 310°
2026-05-05 20:18 52.13773 -0.66608 32080 ft 413 kts 310°
2026-05-05 20:18 52.15756 -0.69962 31589 ft 410 kts 310°
2026-05-05 20:18 52.17723 -0.73294 31109 ft 406 kts 310°
2026-05-05 20:18 52.19671 -0.76601 30638 ft 403 kts 310°
2026-05-05 20:19 52.21607 -0.79889 30183 ft 400 kts 310°
2026-05-05 20:19 52.23523 -0.83142 29677 ft 396 kts 311°
2026-05-05 20:19 52.25621 -0.86050 29220 ft 396 kts 322°
2026-05-05 20:19 52.27917 -0.88388 28782 ft 393 kts 325°
2026-05-05 20:20 52.30239 -0.90682 28343 ft 388 kts 325°
2026-05-05 20:20 52.32533 -0.92958 27922 ft 383 kts 325°
2026-05-05 20:20 52.34797 -0.95213 27491 ft 379 kts 325°
2026-05-05 20:20 52.37037 -0.97449 27062 ft 375 kts 325°
2026-05-05 20:21 52.39250 -0.99663 26639 ft 372 kts 325°
2026-05-05 20:21 52.41448 -1.01862 26189 ft 369 kts 325°
2026-05-05 20:21 52.43627 -1.04047 25747 ft 366 kts 325°
2026-05-05 20:21 52.45789 -1.06217 25301 ft 364 kts 325°
2026-05-05 20:22 52.47942 -1.08385 24831 ft 362 kts 325°
2026-05-05 20:22 52.50080 -1.10538 24375 ft 360 kts 326°
2026-05-05 20:22 52.52212 -1.12684 23919 ft 359 kts 325°
2026-05-05 20:22 52.54337 -1.14825 23410 ft 358 kts 326°
2026-05-05 20:23 52.56452 -1.16958 22921 ft 355 kts 326°
2026-05-05 20:23 52.58553 -1.19073 22471 ft 352 kts 326°
2026-05-05 20:23 52.60635 -1.21173 22023 ft 350 kts 326°
2026-05-05 20:23 52.62700 -1.23254 21582 ft 347 kts 326°
2026-05-05 20:24 52.64750 -1.25327 21146 ft 345 kts 326°
2026-05-05 20:24 52.66786 -1.27391 20710 ft 343 kts 326°
2026-05-05 20:24 52.68813 -1.29445 20280 ft 341 kts 326°
2026-05-05 20:24 52.70830 -1.31495 19850 ft 340 kts 326°
2026-05-05 20:25 52.72835 -1.33535 19430 ft 338 kts 326°
2026-05-05 20:25 52.74832 -1.35572 19002 ft 337 kts 325°
2026-05-05 20:25 52.76820 -1.37604 18596 ft 336 kts 325°
2026-05-05 20:25 52.78804 -1.39636 18138 ft 335 kts 326°
2026-05-05 20:26 52.80781 -1.41657 17707 ft 333 kts 326°
2026-05-05 20:26 52.82741 -1.43661 17290 ft 330 kts 326°
2026-05-05 20:26 52.84686 -1.45649 16884 ft 328 kts 326°
2026-05-05 20:26 52.86621 -1.47628 16472 ft 326 kts 326°
2026-05-05 20:27 52.88546 -1.49599 16069 ft 324 kts 326°
2026-05-05 20:27 52.90461 -1.51563 15666 ft 323 kts 327°
2026-05-05 20:27 52.92362 -1.53521 15263 ft 321 kts 326°
2026-05-05 20:27 52.94255 -1.55474 14855 ft 320 kts 327°
2026-05-05 20:28 52.96142 -1.57421 14454 ft 319 kts 327°
2026-05-05 20:28 52.98022 -1.59360 14066 ft 318 kts 327°
2026-05-05 20:28 52.99894 -1.61291 13678 ft 316 kts 326°
2026-05-05 20:28 53.01746 -1.63202 13342 ft 311 kts 327°
2026-05-05 20:29 53.03585 -1.65103 12887 ft 311 kts 327°
2026-05-05 20:29 53.05352 -1.67131 12495 ft 307 kts 318°
2026-05-05 20:29 53.06789 -1.69683 12100 ft 306 kts 310°
2026-05-05 20:29 53.08181 -1.72398 11713 ft 303 kts 310°
2026-05-05 20:30 53.09531 -1.75013 11343 ft 301 kts 311°
2026-05-05 20:30 53.10890 -1.77639 10980 ft 298 kts 311°
2026-05-05 20:30 53.12220 -1.80212 10822 ft 288 kts 311°
2026-05-05 20:30 53.13512 -1.82718 10552 ft 283 kts 311°
2026-05-05 20:31 53.14792 -1.85203 10240 ft 280 kts 311°
2026-05-05 20:31 53.16052 -1.87654 9925 ft 277 kts 311°
2026-05-05 20:31 53.17303 -1.90090 9490 ft 277 kts 311°
2026-05-05 20:31 53.18554 -1.92531 9114 ft 275 kts 311°
2026-05-05 20:32 53.19785 -1.94929 8828 ft 269 kts 311°
2026-05-05 20:32 53.21008 -1.97293 8412 ft 269 kts 311°
2026-05-05 20:32 53.22205 -1.99685 8095 ft 265 kts 304°
2026-05-05 20:32 53.22715 -2.01523 8032 ft 265 kts 286°
2026-05-05 20:33 53.22661 -2.05664 8049 ft 273 kts 262°
2026-05-05 20:33 53.22307 -2.08762 8040 ft 266 kts 260°
2026-05-05 20:33 53.22070 -2.10731 7983 ft 257 kts 261°
2026-05-05 20:33 53.21713 -2.13617 7696 ft 254 kts 261°
2026-05-05 20:34 53.21361 -2.16610 7448 ft 269 kts 260°
2026-05-05 20:34 53.21004 -2.19686 7195 ft 271 kts 260°
2026-05-05 20:34 53.20661 -2.22786 6946 ft 272 kts 261°
2026-05-05 20:34 53.20320 -2.25876 6690 ft 270 kts 260°
2026-05-05 20:35 53.19988 -2.28946 6450 ft 266 kts 261°
2026-05-05 20:35 53.19670 -2.31917 6307 ft 254 kts 260°
2026-05-05 20:35 53.19367 -2.34754 6174 ft 243 kts 260°
2026-05-05 20:35 53.19078 -2.37481 5928 ft 237 kts 260°
2026-05-05 20:36 53.18793 -2.40181 5586 ft 236 kts 260°
2026-05-05 20:36 53.18513 -2.42875 5277 ft 236 kts 260°
2026-05-05 20:36 53.18241 -2.45568 4968 ft 235 kts 261°
2026-05-05 20:36 53.18030 -2.48261 4639 ft 235 kts 271°
2026-05-05 20:37 53.18481 -2.50851 4261 ft 235 kts 306°
2026-05-05 20:37 53.19678 -2.52569 4049 ft 224 kts 339°
2026-05-05 20:37 53.21160 -2.52857 3927 ft 211 kts 14°
2026-05-05 20:37 53.22492 -2.51999 3758 ft 203 kts 29°
2026-05-05 20:38 53.23727 -2.50947 3608 ft 196 kts 31°
2026-05-05 20:38 53.24706 -2.49466 3485 ft 188 kts 51°
2026-05-05 20:38 53.25516 -2.47800 3379 ft 180 kts 53°
2026-05-05 20:38 53.26295 -2.46199 3057 ft 178 kts 52°
2026-05-05 20:39 53.27063 -2.44621 2752 ft 171 kts 52°
2026-05-05 20:39 53.27786 -2.43138 2520 ft 158 kts 52°
2026-05-05 20:39 53.28454 -2.41764 2292 ft 149 kts 52°
2026-05-05 20:39 53.29078 -2.40483 2099 ft 136 kts 52°
2026-05-05 20:40 53.29662 -2.39280 1912 ft 131 kts 52°
2026-05-05 20:40 53.30235 -2.38108 1725 ft 130 kts 53°
2026-05-05 20:40 53.30811 -2.36940 1513 ft 130 kts 52°
2026-05-05 20:40 53.31376 -2.35757 1273 ft 129 kts 53°
2026-05-05 20:41 53.31942 -2.34589 1129 ft 129 kts 53°
2026-05-05 20:41 53.32498 -2.33411 967 ft 131 kts 53°
2026-05-05 20:41 53.33074 -2.32263 743 ft 131 kts 52°
2026-05-05 20:41 53.33654 -2.31078 630 ft 129 kts 51°
2026-05-05 20:42 53.34219 -2.29916 459 ft 132 kts 51°
2026-05-05 20:42 53.34786 -2.28727 295 ft 128 kts 52°
2026-05-05 20:42 53.35317 -2.27619 256 ft 106 kts 52°
2026-05-05 20:42 53.35669 -2.26887 266 ft 57 kts 50°
2026-05-05 20:43 53.35792 -2.26671 265 ft 10 kts 10°
2026-05-05 20:43 53.35877 -2.26694 262 ft 12 kts 350°
2026-05-05 20:43 53.35925 -2.26779 254 ft 11 kts 267°
2026-05-05 20:43 53.35908 -2.26827 253 ft 0 kts 229°
2026-05-05 20:44 53.35907 -2.26829 253 ft 2 kts 230°
2026-05-05 20:44 53.35873 -2.26898 254 ft 10 kts 231°
2026-05-05 20:44 53.35835 -2.26980 254 ft 8 kts 237°
2026-05-05 20:45 53.35770 -2.27148 252 ft 8 kts 230°
2026-05-05 20:45 53.35739 -2.27211 253 ft 6 kts 231°
2026-05-05 20:45 53.35699 -2.27294 253 ft 14 kts 231°
2026-05-05 20:46 53.35636 -2.27423 253 ft 9 kts 230°
2026-05-05 20:46 53.35623 -2.27516 250 ft 11 kts 296°
2026-05-05 20:46 53.35685 -2.27607 247 ft 12 kts 326°
2026-05-05 20:46 53.35764 -2.27657 247 ft 13 kts 347°
2026-05-05 20:47 53.35862 -2.27648 247 ft 15 kts
2026-05-05 20:47 53.35973 -2.27629 247 ft 17 kts
2026-05-05 20:47 53.36066 -2.27631 247 ft 9 kts 326°
2026-05-05 20:47 53.36087 -2.27728 247 ft 9 kts 282°
2026-05-05 20:48 53.36100 -2.27820 247 ft 8 kts 286°
2026-05-05 20:48 53.36120 -2.27910 247 ft 11 kts 302°
2026-05-05 20:48 53.36182 -2.28021 247 ft 14 kts 315°
2026-05-05 20:48 53.36256 -2.28146 247 ft 16 kts 315°
2026-05-05 20:49 53.36338 -2.28284 247 ft 18 kts 315°
2026-05-05 20:49 53.36405 -2.28424 247 ft 14 kts 294°
2026-05-05 20:49 53.36466 -2.28563 247 ft 16 kts 315°
2026-05-05 20:49 53.36547 -2.28701 247 ft 16 kts 313°
2026-05-05 20:50 53.36596 -2.28829 247 ft 11 kts 298°
2026-05-05 20:50 53.36645 -2.28893 247 ft 9 kts 346°
2026-05-05 20:50 53.36698 -2.28959 247 ft 11 kts 315°
2026-05-05 20:50 53.36746 -2.29036 247 ft 7 kts 327°
2026-05-05 20:51 53.36797 -2.29025 247 ft 8 kts 17°
2026-05-05 20:51 53.36850 -2.28967 247 ft 10 kts 45°
2026-05-05 20:51 53.36880 -2.28916 247 ft 4 kts 45°
2026-05-05 20:51 53.36887 -2.28882 247 ft 4 kts 102°
2026-05-05 20:52 53.36872 -2.28849 247 ft 4 kts 130°
2026-05-05 20:52 53.36866 -2.28838 247 ft 0 kts 133°
2026-05-05 20:52 53.36864 -2.28835 247 ft 0 kts 134°